Miscellaneous Local Product
Issued by NWS Hastings, NE

Home | Current Version | Previous Version | Graphics & Text | Print | Product List | Glossary On
Versions: 1 2 3 4 5 6 7 8 9 10 11 12 13 14 15 16 17 18 19 20 21 22 23 24 25 26 27 28 29 30 31 32 33 34 35 36 37 38 39 40 41 42 43 44 45 46 47 48 49 50
000
AXUS43 KGID 181302
MISGRI

GID CWA HOURLY WEATHER ROUNDUP
NATIONAL WEATHER SERVICE HASTINGS NE
700 AM CST THU JAN 18 2018

NOTE: "FAIR" INDICATES FEW OR NO CLOUDS BELOW 12,000 FEET WITH NO
SIGNIFICANT WEATHER AND/OR OBSTRUCTIONS TO VISIBILITY.

...SOUTH CENTRAL NEBRASKA...

CITY           SKY/WX    TMP DP  RH WIND       PRES   REMARKS
GRAND ISLAND   CLOUDY    17  12  80 S9        30.05F WCI   6
KEARNEY        CLOUDY    16  12  84 W7        30.06F WCI   6
HASTINGS       CLOUDY    16   9  74 S7        30.07F WCI   6
ORD            NOT AVBL
YORK           CLOUDY    14  10  85 S8        30.09S WCI   3
AURORA         CLOUDY    14   9  80 SW9       30.07S WCI   2
LEXINGTON      CLEAR     14  10  83 NW7       30.06F WCI   4
HOLDREGE       CLOUDY    21  16  82 SW5       30.07S WCI  14
HEBRON         CLOUDY    17   9  68 SW9       30.13F WCI   6

...NEBRASKA PANHANDLE...

CITY           SKY/WX    TMP DP  RH WIND       PRES   REMARKS
CHADRON        PTCLDY    24  18  77 SW9       29.98F WCI  14
ALLIANCE       CLEAR     18  16  92 W7        29.98F WCI   9
SCOTTSBLUFF    PTCLDY    17  13  84 CALM      30.01F
SIDNEY         PTCLDY    22  17  81 SW10      30.04F WCI  11

...WESTERN AND NORTH CENTRAL NEBRASKA...

CITY           SKY/WX    TMP DP  RH WIND       PRES   REMARKS
VALENTINE      PTCLDY    26  20  77 W12       29.93F WCI  16
AINSWORTH      PTCLDY    29  22  75 SW8       29.94F WCI  21
ONEILL         CLEAR     20  17  89 S9        29.97F WCI   9
BROKEN BOW     CLEAR     21  14  74 CALM      30.00F
IMPERIAL       PTCLDY    24  18  77 W10       30.06F WCI  14
NORTH PLATTE   CLEAR     14  10  84 CALM      30.04F
MCCOOK         CLEAR     18  14  84 W10       30.08F WCI   6

...EASTERN NEBRASKA...

CITY           SKY/WX    TMP DP  RH WIND       PRES   REMARKS
NORFOLK        CLOUDY    13  10  88 S3        30.02F
SO SIOUX CITY  CLOUDY    16  13  88 E9        30.02F WCI   4
TEKAMAH        CLOUDY    15   9  76 S8        30.07F WCI   4
COLUMBUS       CLOUDY    16  11  80 SW3       30.07F
ALBION         CLOUDY    19  15  83 CALM      30.03S
OMAHA EPPLEY   CLOUDY    14   8  77 SE12      30.13F WCI   0
OFFUTT AFB     CLOUDY     5   1  84 MISG      30.12F
MILLARD        CLOUDY    18  10  71 SE3       30.13F
LINCOLN        CLOUDY    15   7  70 S8        30.13F WCI   4
NEBRASKA CITY  CLOUDY    19  10  68 S7        30.16S WCI  10
BEATRICE       CLOUDY    15   8  72 S3        30.16F
FALLS CITY     CLOUDY    13   6  74 SE5       30.20F WCI   5

...NORTHERN KANSAS...

CITY           SKY/WX    TMP DP  RH WIND       PRES   REMARKS
GOODLAND       CLEAR     24  13  62 SW10      30.08F WCI  14
HILL CITY      CLOUDY    16  11  80 W6        30.11F WCI   7
NORTON         SUNNY     12   9  85 SW10      30.08  WCI  -1
PHILLIPSBURG   CLEAR      9   5  85 CALM      30.12F
SMITH CENTER     N/A      7   3  85 S5        30.13F WCI  -2
BELOIT         CLEAR     12   5  73 CALM      30.17S
HAYS           CLOUDY    12   8  84 SW8       30.15F WCI   0
RUSSELL        CLOUDY    16  10  77 S10       30.14F WCI   4
CONCORDIA      CLOUDY    18   8  65 S9        30.15S WCI   7
SALINA         CLOUDY    17   8  67 S7        30.21F WCI   8
TOPEKA         CLOUDY    17   9  70 CALM      30.27S



USA.gov is the U.S. government's official web portal to all federal, state and local government web resources and services.